Temp
-13 -13 -13 -13 -13 -13 -14 -14 -16 -17 -18 -19 -19 -18 -17 -16 -15 -14 -14 -14 -13 -13 -12 -12 -12 -12 -12 -11 -11 -11 -12 -12 -11 -12 -12 -12 -12 -12 -12 -12 -12 -12 -12
-13 -13 -13 -13 -13 -13 -13 -15 -16 -17 -19 -20 -21 -20 -19 -18 -17 -16 -15 -14 -14 -13 -13 -13 -12 -12 -12 -13 -12 -12 -13 -13 -12 -12 -12 -13 -13 -12 -12 -12 -12 -12 -12
-13 -13 -13 -13 -12 -13 -14 -15 -16 -17 -18 -19 -20 -20 -20 -19 -18 -16 -15 -14 -14 -13 -13 -13 -13 -13 -13 -13 -13 -13 -13 -13 -12 -12 -12 -12 -12 -13 -12 -13 -12 -12 -12
-12 -12 -13 -13 -13 -13 -14 -15 -15 -16 -17 -18 -19 -19 -19 -18 -17 -16 -15 -14 -14 -14 -13 -14 -13 -13 -13 -13 -13 -13 -13 -13 -13 -12 -12 -12 -13 -13 -14 -13 -13 -13 -12
-11 -12 -12 -13 -13 -13 -14 -15 -15 -16 -16 -16 -17 -18 -18 -18 -17 -16 -15 -14 -14 -14 -14 -14 -14 -14 -13 -13 -13 -13 -13 -13 -13 -13 -13 -13 -12 -13 -14 -14 -13 -13 -13
-12 -12 -12 -12 -13 -13 -14 -14 -15 -15 -15 -16 -16 -16 -16 -16 -16 -15 -15 -15 -14 -14 -14 -14 -14 -14 -14 -14 -14 -13 -13 -13 -14 -14 -14 -14 -14 -13 -13 -14 -14 -14 -13
-12 -12 -12 -12 -12 -13 -14 -14 -14 -15 -15 -15 -15 -15 -15 -15 -15 -15 -15 -15 -14 -14 -14 -14 -14 -14 -14 -14 -14 -14 -13 -14 -14 -14 -14 -14 -14 -14 -14 -13 -14 -14 -14
-12 -12 -12 -12 -12 -12 -13 -13 -14 -14 -14 -14 -15 -15 -15 -15 -14 -14 -14 -14 -14 -14 -13 -13 -13 -13 -14 -14 -14 -14 -14 -14 -14 -14 -14 -14 -14 -14 -14 -14 -13 -14 -14
-11 -12 -12 -12 -12 -12 -12 -12 -13 -13 -14 -14 -14 -14 -14 -14 -14 -13 -13 -13 -12 -12 -12 -12 -13 -13 -14 -14 -14 -14 -14 -14 -14 -14 -14 -14 -14 -14 -14 -14 -14 -13 -14
-12 -12 -12 -12 -12 -12 -13 -12 -12 -12 -13 -13 -13 -14 -14 -13 -13 -13 -13 -13 -13 -12 -12 -12 -12 -12 -13 -14 -14 -14 -14 -14 -15 -15 -15 -15 -14 -14 -14 -14 -13 -13 -14
-12 -12 -12 -12 -12 -12 -12 -12 -12 -12 -12 -12 -12 -12 -13 -13 -13 -13 -13 -13 -13 -13 -12 -12 -12 -12 -12 -12 -12 -13 -13 -14 -14 -15 -15 -15 -15 -15 -14 -14 -14 -13 -13
-12 -12 -12 -12 -12 -12 -12 -12 -13 -13 -13 -12 -12 -12 -13 -12 -12 -12 -12 -12 -12 -12 -12 -12 -12 -12 -12 -12 -12 -13 -13 -13 -14 -14 -14 -14 -14 -14 -14 -14 -14 -13 -13
-13 -13 -13 -12 -12 -12 -12 -13 -13 -13 -13 -12 -13 -13 -13 -13 -13 -13 -13 -13 -13 -13 -13 -13 -13 -13 -13 -13 -13 -13 -13 -13 -13 -13 -13 -13 -13 -13 -13 -13 -13 -13 -13
-13 -13 -13 -13 -13 -13 -13 -13 -13 -13 -13 -13 -13 -13 -13 -13 -13 -13 -13 -13 -13 -13 -13 -13 -13 -13 -13 -13 -13 -13 -13 -13 -13 -14 -14 -14 -14 -14 -14 -14 -14 -13 -13
-14 -14 -14 -14 -14 -14 -13 -13 -13 -13 -14 -14 -14 -13 -13 -13 -13 -13 -13 -13 -13 -13 -13 -13 -13 -13 -13 -13 -14 -14 -14 -14 -14 -14 -14 -15 -14 -14 -15 -15 -15 -14 -14
-15 -14 -14 -14 -14 -14 -14 -14 -14 -14 -14 -14 -14 -14 -14 -14 -14 -14 -14 -14 -14 -14 -14 -14 -14 -14 -14 -14 -14 -14 -14 -14 -14 -14 -14 -14 -14 -14 -14 -15 -16 -16 -15
-15 -15 -15 -15 -15 -15 -15 -15 -15 -15 -15 -15 -15 -15 -15 -15 -15 -15 -14 -14 -14 -14 -14 -14 -14 -14 -14 -14 -14 -14 -14 -14 -14 -14 -14 -15 -15 -15 -15 -15 -15 -15 -15
-15 -15 -15 -15 -15 -15 -15 -15 -15 -15 -15 -15 -15 -15 -15 -15 -15 -15 -15 -14 -15 -14 -14 -14 -14 -14 -14 -14 -14 -14 -14 -14 -14 -14 -14 -14 -14 -14 -14 -15 -16 -16 -16
-16 -16 -16 -16 -16 -16 -15 -15 -15 -15 -15 -15 -15 -15 -15 -15 -15 -15 -15 -15 -15 -15 -15 -15 -15 -15 -15 -15 -15 -15 -15 -15 -15 -15 -15 -15 -15 -15 -15 -15 -15 -16 -16
-16 -16 -16 -16 -16 -16 -16 -16 -16 -16 -16 -16 -16 -16 -16 -16 -16 -16 -16 -16 -15 -16 -16 -16 -16 -16 -16 -16 -16 -16 -16 -16 -16 -16 -16 -16 -16 -16 -16 -16 -16 -17 -18
-15 -16 -16 -16 -16 -16 -16 -17 -17 -17 -16 -16 -16 -16 -16 -16 -16 -17 -17 -17 -17 -17 -17 -17 -17 -17 -17 -16 -16 -16 -16 -17 -17 -17 -17 -17 -17 -18 -18 -19 -19 -20 -20
-16 -16 -17 -17 -17 -17 -17 -17 -17 -18 -18 -18 -18 -18 -18 -17 -17 -17 -18 -18 -17 -17 -17 -17 -17 -17 -17 -17 -17 -17 -17 -18 -18 -19 -19 -19 -19 -20 -20 -21 -21 -21 -21
-18 -18 -18 -18 -18 -18 -18 -18 -18 -18 -18 -18 -19 -19 -19 -19 -19 -18 -18 -18 -18 -18 -18 -18 -18 -18 -18 -18 -18 -18 -19 -19 -19 -20 -20 -21 -22 -22 -22 -22 -22 -22 -23
-18 -18 -19 -19 -19 -19 -19 -19 -19 -19 -19 -19 -19 -19 -19 -19 -19 -19 -19 -19 -19 -19 -19 -19 -19 -19 -19 -20 -20 -19 -20 -20 -20 -21 -21 -22 -23 -23 -23 -23 -23 -23 -23
-19 -19 -19 -20 -20 -19 -20 -20 -19 -19 -19 -20 -20 -20 -19 -19 -19 -20 -20 -20 -20 -20 -19 -19 -19 -20 -20 -21 -21 -21 -21 -21 -22 -22 -22 -23 -23 -23 -23 -23 -23 -24 -24
-20 -20 -20 -20 -20 -20 -20 -20 -20 -20 -20 -20 -20 -21 -21 -21 -21 -21 -21 -22 -21 -22 -22 -22 -21 -21 -21 -21 -21 -22 -22 -22 -22 -22 -23 -24 -24 -23 -23 -23 -24 -24 -25
Height
5796 5791 5786 5781 5776 5766 5755 5743 5728 5711 5695 5686 5681 5684 5692 5701 5711 5720 5729 5734 5739 5743 5745 5747 5748 5748 5747 5747 5745 5743 5740 5736 5735 5734 5731 5728 5725 5723 5721 5720 5718 5717 5717
5788 5782 5778 5774 5768 5758 5747 5735 5720 5704 5690 5680 5675 5674 5681 5690 5700 5710 5719 5726 5731 5734 5737 5738 5739 5739 5737 5737 5735 5734 5731 5728 5727 5724 5722 5720 5716 5714 5712 5710 5707 5705 5704
5781 5776 5773 5768 5761 5751 5740 5729 5717 5703 5691 5682 5677 5677 5680 5688 5695 5704 5712 5718 5723 5727 5729 5730 5730 5729 5729 5728 5727 5726 5724 5721 5719 5716 5715 5713 5710 5707 5705 5702 5699 5696 5694
5777 5772 5767 5762 5756 5749 5737 5727 5716 5705 5693 5687 5683 5682 5684 5689 5696 5700 5706 5712 5716 5719 5721 5721 5722 5721 5721 5720 5719 5719 5717 5714 5712 5710 5708 5706 5703 5701 5697 5694 5692 5689 5687
5774 5767 5763 5758 5753 5746 5736 5726 5717 5708 5699 5692 5689 5689 5689 5691 5694 5698 5701 5706 5709 5710 5712 5714 5714 5714 5714 5713 5712 5712 5711 5708 5706 5704 5702 5700 5697 5695 5693 5688 5685 5682 5681
5772 5766 5759 5754 5748 5741 5733 5725 5717 5709 5703 5698 5694 5692 5693 5695 5696 5698 5700 5703 5704 5704 5705 5706 5707 5707 5707 5706 5706 5705 5704 5702 5700 5698 5696 5694 5691 5688 5686 5685 5682 5678 5674
5766 5762 5757 5750 5744 5738 5731 5725 5718 5711 5706 5702 5698 5697 5695 5696 5697 5698 5699 5699 5699 5699 5700 5700 5700 5701 5700 5700 5699 5697 5696 5695 5694 5692 5690 5688 5686 5683 5680 5678 5676 5673 5669
5760 5755 5751 5746 5741 5734 5729 5723 5718 5713 5708 5704 5701 5699 5697 5697 5696 5697 5697 5697 5696 5695 5696 5695 5695 5694 5693 5693 5692 5691 5690 5688 5686 5685 5683 5681 5678 5676 5673 5670 5668 5666 5661
5754 5749 5745 5741 5736 5732 5727 5721 5716 5712 5707 5704 5700 5698 5696 5695 5694 5692 5692 5691 5691 5691 5691 5690 5689 5687 5686 5685 5685 5684 5682 5680 5678 5677 5675 5673 5670 5668 5664 5661 5658 5656 5655
5747 5743 5739 5735 5731 5727 5723 5720 5715 5710 5706 5702 5699 5696 5694 5692 5690 5689 5689 5687 5687 5685 5684 5683 5681 5680 5678 5676 5675 5674 5673 5671 5669 5668 5667 5664 5662 5659 5656 5653 5650 5647 5645
5741 5736 5732 5728 5725 5722 5718 5715 5712 5708 5704 5701 5697 5694 5691 5689 5686 5685 5683 5682 5681 5680 5678 5677 5675 5673 5671 5669 5667 5665 5663 5662 5660 5658 5657 5655 5652 5650 5647 5644 5641 5638 5636
5734 5730 5725 5722 5718 5715 5712 5708 5705 5701 5698 5695 5692 5690 5688 5685 5683 5681 5679 5677 5675 5673 5672 5670 5668 5666 5664 5662 5660 5657 5655 5653 5651 5649 5647 5645 5643 5641 5638 5635 5632 5629 5626
5726 5722 5717 5713 5710 5706 5703 5700 5697 5693 5690 5688 5685 5683 5680 5678 5676 5674 5672 5670 5668 5666 5664 5662 5660 5658 5655 5653 5651 5648 5646 5644 5642 5639 5637 5635 5632 5630 5627 5624 5621 5618 5616
5716 5712 5709 5704 5700 5696 5692 5689 5687 5685 5683 5679 5676 5674 5671 5669 5666 5664 5663 5661 5659 5657 5654 5652 5649 5647 5645 5643 5640 5638 5635 5633 5630 5628 5625 5623 5620 5617 5616 5613 5610 5608 5605
5707 5703 5700 5697 5693 5689 5683 5680 5677 5674 5672 5669 5667 5665 5662 5660 5657 5655 5652 5650 5647 5645 5642 5639 5637 5635 5633 5630 5628 5625 5622 5620 5617 5614 5611 5608 5606 5603 5601 5600 5596 5594 5592
5697 5693 5688 5686 5683 5679 5676 5672 5669 5665 5662 5659 5657 5654 5651 5648 5646 5644 5641 5639 5636 5633 5630 5628 5626 5622 5620 5617 5615 5612 5609 5607 5604 5601 5598 5595 5592 5590 5587 5584 5581 5579 5577
5685 5683 5678 5674 5671 5668 5665 5662 5659 5657 5654 5650 5647 5644 5641 5638 5636 5633 5630 5627 5624 5620 5618 5614 5612 5609 5606 5604 5601 5598 5595 5592 5589 5586 5583 5580 5577 5574 5571 5568 5565 5562 5559
5673 5670 5667 5665 5661 5659 5655 5653 5651 5648 5644 5641 5638 5635 5631 5628 5624 5621 5618 5615 5612 5608 5605 5602 5599 5596 5593 5590 5587 5584 5581 5577 5574 5571 5568 5564 5561 5558 5555 5552 5548 5545 5543
5662 5659 5655 5652 5650 5647 5644 5641 5638 5635 5632 5629 5626 5623 5620 5617 5614 5610 5606 5603 5600 5596 5593 5589 5586 5583 5579 5576 5572 5569 5565 5561 5559 5555 5553 5550 5545 5542 5539 5536 5531 5526 5523
5651 5648 5645 5641 5638 5634 5631 5629 5626 5624 5620 5616 5613 5609 5606 5603 5599 5596 5593 5589 5585 5581 5577 5573 5570 5566 5562 5559 5556 5552 5549 5545 5542 5537 5533 5530 5526 5523 5519 5516 5512 5508 5504
5640 5635 5632 5629 5626 5622 5619 5616 5612 5609 5606 5602 5598 5594 5590 5587 5584 5579 5576 5573 5568 5565 5561 5558 5553 5549 5545 5540 5537 5533 5531 5525 5522 5517 5513 5510 5506 5502 5498 5495 5492 5490 5486
5627 5622 5618 5614 5610 5608 5605 5602 5598 5594 5589 5584 5580 5576 5572 5569 5565 5562 5557 5553 5550 5547 5543 5540 5535 5530 5526 5522 5517 5513 5510 5505 5502 5497 5493 5490 5487 5483 5479 5477 5473 5470 5467
5609 5606 5603 5598 5593 5590 5587 5584 5580 5577 5572 5567 5562 5558 5554 5549 5545 5542 5539 5535 5531 5528 5525 5521 5517 5512 5505 5501 5496 5493 5488 5485 5482 5477 5472 5470 5467 5464 5461 5458 5454 5451 5448
5591 5587 5584 5580 5576 5571 5567 5564 5560 5557 5554 5549 5544 5538 5535 5532 5528 5524 5519 5516 5511 5508 5504 5500 5496 5492 5487 5479 5472 5470 5467 5463 5460 5456 5453 5451 5448 5444 5442 5438 5435 5432 5430
5573 5569 5565 5562 5557 5552 5547 5541 5539 5537 5534 5530 5526 5521 5517 5512 5509 5505 5500 5496 5490 5484 5480 5475 5471 5467 5465 5458 5451 5447 5444 5440 5437 5435 5434 5432 5428 5425 5422 5420 5417 5415 5413
5555 5550 5547 5544 5539 5534 5529 5521 5517 5516 5513 5509 5504 5499 5496 5491 5487 5482 5480 5474 5467 5461 5455 5449 5443 5442 5438 5434 5428 5425 5422 5419 5416 5415 5416 5412 5407 5406 5403 5402 5400 5398 5396
Wind_Speed
40 40 38 34 39 44 46 51 55 55 45 39 37 49 53 53 49 46 47 43 40 38 37 36 35 37 42 44 45 46 44 43 43 40 40 40 41 43 44 45 47 47 46
37 33 26 29 37 42 45 45 50 51 42 32 26 28 36 41 43 41 41 41 37 35 33 32 36 40 41 41 39 35 33 33 33 32 31 31 34 33 35 37 41 44 46
31 25 22 27 34 41 40 41 43 42 39 30 19 14 17 25 30 34 33 32 31 30 29 34 38 38 36 31 29 28 23 24 24 24 27 29 30 31 33 31 31 33 36
29 23 22 25 30 35 34 34 37 35 31 30 20 10 9 13 19 23 25 25 27 29 33 35 34 30 25 26 23 20 22 23 22 20 20 20 21 23 26 27 28 27 29
28 27 25 25 29 30 31 29 29 30 25 20 21 18 13 14 20 22 23 26 31 31 29 29 24 24 23 22 20 22 23 22 22 23 23 24 23 24 19 21 26 27 28
22 23 24 27 30 30 29 29 27 24 22 20 12 10 10 10 11 12 16 21 25 25 23 24 25 24 22 22 24 27 27 27 26 25 26 28 25 25 25 22 22 25 29
25 22 22 24 27 28 28 27 24 22 20 17 13 10 6 6 9 12 17 20 21 22 23 22 22 23 23 25 27 27 28 29 29 28 27 24 25 26 27 29 29 28 31
29 28 26 25 24 26 25 25 23 21 19 15 12 10 8 7 8 9 11 12 12 14 16 18 22 27 28 29 28 29 27 29 30 29 27 29 31 30 32 31 31 30 32
32 30 29 28 26 23 24 24 23 21 18 17 13 11 11 12 12 12 11 10 11 13 16 19 23 28 32 34 33 31 31 31 31 30 31 33 35 36 38 38 34 31 26
34 33 33 32 31 30 25 22 22 22 21 19 17 15 15 14 14 14 15 17 17 19 20 22 24 25 27 29 32 33 34 34 35 35 36 37 38 39 40 38 35 32 25
37 37 37 36 33 31 31 29 24 21 21 20 18 17 16 15 16 17 18 18 18 20 21 22 22 24 25 27 29 32 35 36 37 39 40 42 42 41 40 39 38 33 28
38 39 40 40 40 38 33 31 31 29 27 25 23 22 21 18 18 20 20 20 22 23 25 26 27 26 27 29 30 32 34 36 37 39 42 43 43 43 42 41 38 39 35
41 41 42 42 41 41 40 37 34 33 33 33 32 30 28 28 28 28 27 28 28 29 29 30 31 30 30 31 32 33 34 36 38 37 39 40 40 42 42 39 40 40 43
43 43 43 43 43 41 39 37 37 36 34 36 35 33 33 33 35 35 34 34 34 35 35 36 36 36 36 37 36 36 37 38 41 41 42 43 46 50 52 41 40 42 43
43 42 41 40 40 41 44 43 41 38 35 33 32 34 35 35 36 35 36 36 38 39 41 42 42 42 42 41 43 44 46 46 46 47 48 49 51 51 49 52 54 51 48
43 43 43 43 44 42 40 40 40 39 38 38 36 34 32 32 33 34 34 34 35 37 39 40 40 41 42 42 42 43 43 43 44 46 48 49 48 48 50 51 52 53 53
45 44 45 44 42 41 40 38 36 36 36 36 37 37 35 34 34 36 37 38 39 39 39 39 40 42 43 43 44 44 45 46 47 47 48 49 51 52 52 52 54 53 54
44 42 41 40 39 38 39 37 35 34 35 35 35 36 36 36 34 34 35 36 37 38 39 41 41 41 42 42 44 46 46 47 48 49 51 52 54 55 56 56 58 58 59
44 43 42 39 38 37 37 38 39 40 39 38 38 37 37 39 40 41 41 42 42 43 44 44 45 46 47 47 47 47 49 50 50 51 52 54 56 57 58 59 60 61 62
50 49 48 49 46 45 42 41 42 43 45 45 46 46 47 48 48 49 49 49 48 47 47 48 49 49 49 50 49 51 52 54 55 57 58 59 60 62 64 65 65 63 63
52 54 54 54 55 55 54 52 51 50 50 51 53 54 55 56 56 57 57 53 51 50 51 51 52 52 54 55 56 57 57 59 60 60 62 63 65 66 67 66 65 63 60
52 54 55 55 57 58 59 60 60 59 57 57 59 59 60 61 60 59 56 55 55 56 56 56 56 58 59 60 62 64 63 64 63 64 65 66 66 66 64 63 60 59 57
57 56 57 56 56 56 56 54 55 57 58 59 59 59 58 59 59 58 59 59 61 61 62 61 61 62 64 66 68 68 68 68 66 67 67 67 65 64 64 62 61 60 59
60 59 58 57 56 57 58 59 59 59 60 61 62 63 64 64 65 65 64 65 66 65 65 65 67 67 69 71 73 72 70 70 69 68 68 66 64 64 63 60 58 58 61
61 59 57 56 57 59 61 62 62 63 62 62 63 63 64 64 64 64 65 66 67 70 70 72 73 74 73 73 74 73 71 70 68 67 64 62 63 63 60 58 57 57 58
64 65 65 64 64 64 65 68 70 69 69 68 67 67 68 69 70 70 69 70 73 74 76 77 78 76 75 73 71 68 68 67 66 64 60 58 59 59 57 55 54 51 51
Wind_Direction
311 306 303 307 319 324 321 324 324 326 317 304 282 256 247 240 240 243 246 245 245 251 256 262 266 273 279 280 280 283 287 288 288 289 288 283 279 278 277 277 275 275 273
315 314 311 317 335 332 330 332 333 338 336 326 299 268 249 237 233 234 237 244 248 251 254 259 270 275 274 280 284 286 287 289 289 289 288 286 286 282 282 282 280 276 271
320 310 311 321 336 339 332 333 338 343 349 340 328 303 261 243 230 229 235 239 248 248 252 266 267 271 278 279 281 282 283 291 292 293 288 285 286 286 285 289 289 285 278
330 315 313 324 328 338 336 335 341 346 357 357 338 298 237 227 229 219 225 230 235 250 256 261 269 269 270 273 273 274 286 288 288 294 294 297 298 298 296 290 287 289 288
336 326 314 316 321 334 345 341 343 350 353 9 1 342 302 249 231 227 218 226 238 247 259 263 257 263 266 266 263 279 285 282 285 288 290 290 290 293 308 310 299 292 287
324 334 323 316 317 326 340 350 351 348 352 356 3 12 350 321 299 276 256 250 252 252 246 249 255 255 257 264 270 278 279 278 279 281 284 289 291 294 301 306 301 304 303
322 324 335 335 328 323 327 337 343 349 354 354 352 343 323 286 275 264 256 252 250 250 252 253 251 254 262 268 272 277 278 279 278 278 284 285 288 293 296 299 297 300 299
322 326 324 325 333 338 331 326 330 337 337 341 339 333 314 293 277 272 271 275 273 270 266 261 261 263 263 267 273 277 278 279 277 278 278 285 289 290 294 296 296 296 296
318 322 326 326 326 327 333 332 329 328 326 326 332 330 325 317 306 294 289 282 274 270 270 275 274 270 268 268 268 272 273 274 272 273 277 282 286 288 291 294 295 297 298
314 316 319 322 322 324 320 321 322 325 324 319 310 306 303 293 287 284 281 280 277 275 274 275 280 282 279 271 264 262 265 269 271 272 275 280 283 289 291 290 289 295 301
310 311 314 315 317 317 314 314 309 308 311 307 306 302 299 298 291 284 281 280 280 280 279 280 281 282 279 277 272 268 268 269 270 272 275 278 280 283 286 288 288 284 288
303 306 308 310 311 312 312 309 306 305 301 296 290 287 283 274 278 281 277 274 274 273 273 274 277 279 280 279 278 276 274 274 274 276 277 278 282 287 288 291 291 278 277
303 302 302 302 303 304 304 303 302 303 302 298 295 289 284 281 280 280 279 277 276 277 276 276 278 280 282 282 282 282 283 283 281 280 281 283 288 290 288 287 289 285 274
299 299 299 299 300 301 301 302 303 303 302 298 295 291 288 284 281 281 281 281 281 282 281 281 282 283 284 284 283 284 285 286 288 288 286 283 285 284 285 285 285 286 282
298 299 299 299 301 304 304 302 301 301 301 300 298 297 296 294 293 290 287 286 286 285 283 283 284 285 286 286 285 284 283 282 282 282 284 283 281 284 283 283 281 281 280
296 298 299 301 303 304 303 303 301 299 299 298 297 294 291 289 289 287 286 286 286 287 286 286 286 286 285 286 286 284 284 285 284 284 286 285 286 286 287 287 284 281 281
298 296 296 298 300 301 303 303 301 299 298 297 296 294 293 289 287 286 286 286 286 284 283 283 283 283 283 285 284 283 282 282 283 284 285 285 286 285 284 283 282 284 280
298 299 300 298 297 297 298 298 295 293 293 293 293 291 289 289 291 291 290 290 291 290 288 287 286 285 284 285 286 287 287 288 288 289 288 286 285 285 285 284 281 279 278
301 301 301 299 298 295 291 290 289 289 289 287 286 285 286 287 288 289 289 290 291 289 288 287 286 287 287 289 289 289 288 288 289 289 290 290 288 287 285 286 282 279 277
296 296 297 297 296 295 293 291 289 287 287 287 287 286 286 286 288 289 291 290 289 287 284 284 284 285 286 287 287 290 291 291 293 293 292 291 290 288 288 286 283 280 279
293 292 291 291 291 292 292 291 289 288 288 287 286 286 286 286 288 290 291 289 286 284 284 285 286 288 288 289 290 290 290 290 291 290 290 289 288 288 287 287 287 286 286
292 291 291 290 290 289 288 287 289 289 288 286 284 284 284 285 286 286 286 285 285 285 285 286 287 288 290 289 290 290 289 289 288 288 287 286 287 286 287 290 289 287 283
294 294 293 293 293 293 292 290 287 286 286 286 286 287 286 286 285 284 283 284 285 285 285 285 285 286 287 287 287 286 286 286 285 284 285 285 285 287 288 289 289 286 281
294 294 294 295 295 293 292 290 288 287 286 285 285 285 285 286 287 288 287 287 287 285 284 284 284 283 283 283 282 283 283 283 282 282 282 283 284 286 287 288 287 284 282
293 293 293 292 291 291 290 289 289 289 288 288 288 288 288 288 287 286 285 284 283 284 283 283 283 282 282 281 282 281 280 279 279 279 280 281 283 284 285 285 284 283 281
291 291 291 292 291 290 289 288 289 289 289 289 288 287 287 287 286 286 284 284 284 283 284 285 285 285 285 283 282 280 278 278 277 277 278 279 279 280 280 281 281 280 278